MIDAS 4 DEB, 195

Orbit data source: Space-Track

MIDAS 4 DEB, 195 is space debris in LEO originally from a launch on Sat, 21 Oct 1961 UTC launched from the Air Force Western Test Range (AFWTR). Debris objects in space refer to the collection of defunct objects orbiting the Earth. Examples of debris include non-operational satellites, rocket bodies, and fragments generated from explosions, collisions, or faulty payload assembly.

Loading next visibility...
Identifier
195, 1961-028D
Orbit
LEO
Country
Flag of USUS
Related business
Manufacturer
Unknown
Mission
Spacecraft
Bus & Motor
Unknown
Mass
~10 kg wet, ~10 kg dry
Launch date (UTC)
1961-10-21 (65 years ago)
Launch vehicle
Unknown
Launch site
Air Force Western Test Range (AFWTR)
Object type
Payload
Rocket body
Debris
Shape & HBR
Unknown shape, 1.1 m
Radar Cross Section
Medium (>0.1 m² and <1 m²)

Expand to show TLE details & history
Last TLE update: 10 hours ago

TLE from 10 hours ago
0 MIDAS 4 DEB
1 00195U 61028D   26128.15532756 -.00000016  00000-0 -61673-2 0  9999
2 00195  95.8440 195.9165 0125952 117.4779 243.8940  8.65620333 39562
Epoch: 2026-05-08T03:43Z
TLE epoch observation values (Epoch: 2026-05-08T03:43:40.301Z)
Latitude
0.00001°
Longitude
-85.99259°
Altitude
3,700.42 km
Speed
6.272 km/s
True Right ascension
13h 03m 39s
True Declination
0° 00' 00"
Sunlit
Object was in full shadow at epoch
Visualization orbit readout
Latitude
Unknown
Longitude
Unknown
Altitude
Unknown
Speed
Unknown
Apparent Right ascension
Unknown
Apparent Declination
Unknown
Sunlit
N/A
Visualization observer readout
Local Sidereal Time
21:35:29
Azimuth
Unknown
Elevation
Unknown
Doppler factor
Unknown
Orbital elements
Apogee altitude
3,765.508 km
Perigee altitude
3,513.163 km
Semi-major axis
10,017.473 km
Eccentricity
0.0126
Inclination
95.844°
RAAN
195.9165°
Arg. of periapsis
117.4779°
True anomaly
242.60697°
Mean anomaly
243.894°
Eccentric anomaly
243.24958°
Mean motion
2.16474 °/min
Orbital period
166.3 mins
BSTAR
-0.0061673
Loading maneuver chart data...
Computing Atmospheric mass density...
Loading historical data...
Loading historical data...
Loading historical data...
Loading historical data...
Loading historical data...
Loading historical data...
Loading historical data...

Documentation

Showing up to 5 results
|